Flag for Bermuda Weather past 2 weeks in Hamilton, Bermuda

Now
72 °F

Scattered clouds.


Feels Like: 74 °F
Forecast: 67 / 72 °F
Wind: 29 mph from Northwest

Location: Bermuda

Current Time: May 3, 2015 at 2:58:57 PM

Latest Report: May 3, 2015 at 1:55 PM


Visibility: N/A

Pressure: 29.95 "Hg

Humidity: 73%

Dew point: 63 °F

Location of HamiltonLocation

Historic Weather in Hamilton — Graph

°F

Hamilton temperature yesterday

Maximum temperature yesterday: 77 °F (at 3:55 PM)
Minimum temperature yesterday: 66 °F (at 5:55 AM)
Average temperature yesterday: 71 °F

Past Weeks' High & Low Weather Summary

 TemperatureHumidityPressure
High77 °F (May 2, 3:55 PM)94% (Apr 18, 2:55 PM)30.18 "Hg (Apr 18, 2:55 PM)
Low59 °F (Apr 30, 5:55 AM)52% (Apr 25, 2:55 AM)29.45 "Hg (Apr 27, 2:55 AM)
Average69 °F76%29.82 "Hg
* Reported Apr 18 1:55 PM — May 3 1:55 PM, Hamilton, Weather by CustomWeather, © 2015

Note: Actual official high and low records may vary slightly from our data, if they occured in-between our weather recording intervals... More about our weather records

Advertising

Hamilton weather history for previous 24 hours

 ConditionsComfort  
Time TempWeatherWind HumidityBarometerVisibility
1:55 PM
Sun, May 3
72 °FScattered clouds.29 mph73%29.95 "HgN/A
12:55 PM72 °FScattered clouds.26 mph73%29.95 "HgN/A
11:55 AM72 °FPartly sunny.28 mph73%29.95 "HgN/A
10:55 AM70 °FScattered showers. Partly sunny.24 mph78%29.92 "HgN/A
9:55 AM70 °FScattered clouds.26 mph73%29.89 "HgN/A
8:55 AM70 °FScattered clouds.23 mph73%29.89 "HgN/A
7:55 AM68 °FScattered showers. Broken clouds.30 mph78%29.86 "HgN/A
6:55 AM68 °FPassing clouds.29 mph73%29.83 "HgN/A
5:55 AM68 °FPassing clouds.29 mph73%29.80 "HgN/A
4:55 AM68 °FPartly cloudy.25 mph78%29.80 "HgN/A
3:55 AM68 °FPassing clouds.28 mph78%29.77 "HgN/A
2:55 AM68 °FScattered showers. Partly cloudy.28 mph73%29.77 "HgN/A
1:55 AM68 °FPassing clouds.26 mph73%29.77 "HgN/A
12:55 AM68 °FPassing clouds.24 mph78%29.77 "HgN/A
11:55 PM
Sat, May 2
70 °FScattered showers. Partly cloudy.23 mph69%29.77 "HgN/A
11:01 PM68 °FScattered showers. Passing clouds.22 mph78%29.77 "HgN/A
10:55 PM66 °FSprinkles. Passing clouds.22 mph83%29.77 "HgN/A
9:55 PM70 °FPassing clouds.29 mph73%29.77 "HgN/A
8:55 PM70 °FScattered clouds.26 mph69%29.74 "HgN/A
7:55 PM70 °FScattered clouds.25 mph73%29.74 "HgN/A
6:55 PM72 °FScattered clouds.25 mph65%29.71 "HgN/A
5:55 PM73 °FScattered clouds.25 mph65%29.71 "HgN/A
4:55 PM73 °FScattered clouds.23 mph69%29.71 "HgN/A
3:55 PM77 °FPartly sunny.25 mph65%29.71 "HgN/A
2:55 PM73 °FPartly sunny.24 mph74%29.74 "HgN/A
Weather by CustomWeather, © 2015

See weather overviewHow to use our weather pages